Regional Weather Roundup
Issued by NWS

Home | Current Version | Previous Version | Text Only | Print | Product List | Glossary On
Versions: 1 2 3 4 5 6 7 8 9 10 11 12 13 14 15 16 17 18 19 20 21 22 23 24 25 26 27 28 29 30 31 32 33 34 35 36 37 38 39 40 41 42 43 44 45 46 47 48 49 50
000
ASHW40 PHFO 210232
RWRHI

WEATHER ROUNDUP FOR HAWAII
NATIONAL WEATHER SERVICE HONOLULU HI
400 PM HST WED SEP 20 2017

THIS IS AN AUTOMATED REPORT THAT HAS NOT BEEN QUALITY CONTROLLED.

NOTE..."FAIR" INDICATES FEW OR NO CLOUDS BELOW 12,000 FEET WITH NO
SIGNIFICANT WEATHER AND/OR OBSTRUCTIONS TO VISIBILITY.

* - THESE SITES REPORT LIMITED FIELDS
# - BUOY DATA PROVIDED BY PACIFIC ISLANDS OCEAN OBSERVING SYSTEM.

HIZ001>004-210300-
KAUAI-NIIHAU-

CITY           SKY/WX    TMP DP  RH WIND       PRES   REMARKS
LIHUE APT      MOSUNNY   85  69  58 NE16      30.03S
PORT ALLEN*      N/A     88 N/A N/A E24G32      N/A
POIPU*           N/A     86 N/A N/A NE10G20     N/A
PRINCEVILLE*     N/A     81 N/A N/A E12G18      N/A
KOKOLE POINT*  NOT AVBL
MOLOAA DAIRY*    N/A     82  68  61 E6G14       N/A
WAIMEA HTS*    NOT AVBL
PUU OPAE*      NOT AVBL
PUU LUA*       NOT AVBL
MAKAHA RIDGE*    N/A     84  68  58 W2G9        N/A
$$

HIZ005>011-210300-
OAHU-

CITY           SKY/WX    TMP DP  RH WIND       PRES   REMARKS
HONOLULU       MOSUNNY   86  63  45 NE15G24   29.98S
KALAELOA       MOSUNNY   88  63  43 E9G18     29.99S
KANEOHE MCB    MOSUNNY   85  68  56 NE10      29.98S
WHEELER FIELD  FAIR      83  65  55 E9        30.00S
BELLOWS*         N/A    N/A N/A N/A NE15        N/A
KAHUKU*          N/A    N/A N/A N/A NE10G20     N/A
WHEELER*       NOT AVBL
WAIANAE HARBOR NOT AVBL
DILLINGHAM*      N/A     84  61  45 SW8G18      N/A
KAHUKU TRN*      N/A     82  68  61 W8G21       N/A
KAWAILOA*        N/A     79  66  65 E16G28      N/A
KII*             N/A     82  70  65 E16         N/A
MAKUA RANGE*     N/A     91  63  38 W7G20       N/A  HX  92
OAHU FOREST NW NOT AVBL
SCHOFIELD BRK*   N/A     68  50  52 MISG        N/A
SCHOFIELD S*   NOT AVBL
WAIANAE VLY*   NOT AVBL
KUAOKALA*      NOT AVBL
HONOULIUULI*   NOT AVBL
MOKUOLOE IS*   NOT AVBL
PALEHUA*       NOT AVBL
WAIAWA PHB*    NOT AVBL
$$

HIZ012>013-210300-
MOLOKAI-

CITY           SKY/WX    TMP DP  RH WIND       PRES   REMARKS
MOLOKAI AIRPT  SUNNY     83  68  60 NE16G30   29.99R
KALAUPAPA      NOT AVBL
MAKAPULAPAI*     N/A     84  70  61 E18G26      N/A
MOLOKAI 1*     NOT AVBL
PUU ALII*        N/A     72  62  71 NE2G10      N/A
$$

HIZ016-210300-
KAHOOLAWE-

CITY           SKY/WX    TMP DP  RH WIND       PRES   REMARKS
KAHOOLAWE*     NOT AVBL
HAKIOAWA*        N/A     77  68  72 MISG      30.41
HONOKANAIA*      N/A     85  66  53 E18G36      N/A
KANELOA*         N/A     81  68  65 E21G37    30.04S
KEALIALALO*    NOT AVBL
LUA MAKIKA*    NOT AVBL
$$

HIZ014>015-210300-
LANAI-

CITY           SKY/WX    TMP DP  RH WIND       PRES   REMARKS
LANAI CITY     FAIR      80  67  64 NE20G31   30.02S
LANAI 1*       NOT AVBL
$$

HIZ017>028-210300-
MAUI-

CITY           SKY/WX    TMP DP  RH WIND       PRES   REMARKS
KAHULUI        MOSUNNY   87  65  47 NE18G32   29.95S
KAPALUA-W MAUI MOSUNNY   84  66  54 NE23G30   29.98R
HANA AIRPORT   NOT AVBL
HANA*          NOT AVBL
HALEAKALA SUMM   N/A     52  37  58 E13         N/A
MAALAEA BAY*     N/A     84 N/A N/A VRB22G35    N/A
HALEAKALA*     NOT AVBL
KAUPO GAP*     NOT AVBL
KULA 1*          N/A     60  60  98 S3G9        N/A
$$

HIZ023>026-210300-
BIG ISLAND OF HAWAII COAST AND LOWER SLOPES-

CITY           SKY/WX    TMP DP  RH WIND       PRES   REMARKS
KAILUA KONA    PTSUNNY   85  70  60 S9        29.93S
HILO           CLOUDY    78  71  79 W6        30.00S
HONOKAA*         N/A     77 N/A N/A VRB1        N/A
KAWAIHAE MWT*    N/A     86 N/A N/A W10         N/A
KAWAIHAE*        N/A     82 N/A N/A W10       29.95R
SOUTH POINT*     N/A     77 N/A N/A N20G28      N/A
UPOLU AIRPORT* NOT AVBL
KAMUELA*         N/A     77  64  65 NE12      30.06
HAKALAU*         N/A     57  56  97 NE3         N/A
KALOKO-HONOKO*   N/A     84  70  61 SW6G12    29.94R
PALI 2*          N/A     72  61  68 SW13G20     N/A
KEALAKOMO*       N/A     79  70  73 NE12G18     N/A
KAUPULEHU*     NOT AVBL
KAPAPALA*        N/A     72  69  92 E7G17       N/A
LOWER KAHUKU*    N/A     57  57 100 NE2G12      N/A
PUHE CS*         N/A     88  70  55 SW3G9       N/A  HX  92
PUHO CS*         N/A     84  71  65 W2          N/A
PTA KEAMUKU*     N/A     73  59  60 NE23G33     N/A
WAIKOLOA*      NOT AVBL
$$

HIZ027>028-210300-
BIG ISLAND OF HAWAII INTERIOR AND SUMMMITS-

CITY           SKY/WX    TMP DP  RH WIND       PRES   REMARKS
BRADSHAW FIELD SHOWER    61  57  88 S5        30.32R FOG
MK VISITOR CEN   N/A     52  48  87 S3          N/A
MAUNA KEA*       N/A     39  39 100 SW20        N/A  WCI  30
MAUNA LOA*       N/A     48  46  93 MISG        N/A
MAUNA LOA 1*   NOT AVBL
PTA KIPUKA*      N/A     64  59  82 SE6G14      N/A
PTA RANGE 17*    N/A     64  57  77 E10G16      N/A
PTA WEST*        N/A     72  59  64 NW10G18     N/A
NENE CABIN*      N/A     55  55 100 E3          N/A
AHUMOA*        NOT AVBL
PTA PORTABLE*  NOT AVBL
PUU MALI*        N/A     57  57 100 N6G18       N/A
$$

HIC003-210300-
NORTHWEST ISLANDS-

CITY           SKY/WX    TMP DP  RH WIND       PRES   REMARKS
MIDWAY ISLAND  MOSUNNY   81  68  65 N6        30.05S
MIDWAY NOS*      N/A     82 N/A N/A MISG      30.04S
FRENCH FRIGATE NOT AVBL
$$

PHZ110>124-180-210300-
BUOY REPORTS

STATION/POSITION TIME  TEMP    WIND        PRES    WAVE   SWELL
                       AIR SEA DIR/SP/G            HT/PER HT/DIR
                 (UTC) (F)     (DEG/KT/KT) (MB)    (FT/S) (FT/D)
BUOY 51001       0210   81 82   80/ 16/ 25 1017.7
BUOY 51101       0150   81 82   70/ 14/ 16 1017.7F   6/ 8   5/ 90
BUOY 51100       NOT AVBL
BUOY 51002       0210   81 81   80/ 16/ 19 1013.1
BUOY 51003       0150   81 82   60/ 12/ 14 1014.2S   6/ 8   5/120
BUOY 51004       0150      80   50/ 14/ 16 1013.6S   7/ 8   5/ 90
WAIMEA BAY#      0202      80                N/A     4/13   2/330
MOKAPU POINT#    0204      81                N/A     6/ 8   2/ 80
LANAI#           NOT AVBL
BARBERS PT 2#    NOT AVBL
PAUWELA#         0209      81                N/A     6/ 8   2/360
HILO#            0157      81                N/A     7/ 8   2/110
KANEOHE BAY#     NOT AVBL
KANEOHE BAY 2#   NOT AVBL
HANALEI#         0152      82                N/A     5/ 9   2/ 80
KAHULUI HARBOR   0200   80 81   20/ 17/ 21 1015.1
HONOLULU HARBOR  0200   83 82   60/  6/ 12 1016.0
PEARL HARBOR#    0200      81                N/A     3/ 6   2/170
KILO NALU        NOT AVBL
HILO HARBOR      0200   78 80  290/  4/  5 1015.7
MOKUOLOE         0136   81 82   60/  8/ 13 1016.3R
NAWILIWILI       0200   81      60/ 14/ 16 1016.4
WHOTS BUOY       NOT AVBL
BUOY 51028       NOT AVBL
$$

......................KEY........................................
  SKY/WX - SKY CONDITIONS/PRESENT WEATHER
  TMP    - TEMPERATURE IN FAHRENHEIT
  DWPT   - DEWPOINT IN FAHRENHEIT
  RH     - RELATIVE HUMIDITY IN PERCENT
  WIND   - DIRECTION AND SPEED /MPH FOR ISLANDS...KTS FOR BUOYS/
  PRES   - MEAN SEA LEVEL PRESSURE IN INCHES OF HG
  VSB    - VISIBILITY IN MILES
  HX     - HEAT INDEX
  WCI    - WIND CHILL INDEX
  VRB    - VARIABLE WIND DIRECTION
  N/A    - NOT AVAILABLE




USA.gov is the U.S. government's official web portal to all federal, state and local government web resources and services.